FENGYUN 1C DEB, 31183

Orbit data source: Space-Track

FENGYUN 1C DEB, 31183 is space debris in SSO originally from a launch on Mon, 10 May 1999 UTC launched from the Taiyaun Space Center, China (TSC). Fengyun 1C debris stems from the Chinese weather satellite Fengyun-1C, which was intentionally destroyed by a Chinese anti-satellite missile in 2007. This event dramatically increased the amount of space debris, with thousands of trackable fragments posing hazards to satellites and human spaceflight. The Fengyun 1C debris cloud has become a focal point in discussions about space sustainability and the need for international regulations to prevent the creation of new debris.

Loading next visibility...
Identifier
31183, 1999-025BJM
Orbit
SSO
Country
Flag of CNCN / PRC
Related business
Manufacturer
Unknown
Mission
Spacecraft
Bus & Motor
Unknown
Mass
Unknown
Launch date (UTC)
1999-05-10 (27 years ago)
Launch vehicle
Unknown
Launch site
Taiyaun Space Center, China (TSC)
Object type
Payload
Rocket body
Debris
Shape & HBR
Unknown shape, 0.1 m
Radar Cross Section
Small (<0.1 m²)

Expand to show TLE details & history
Last TLE update: 17 hours ago

TLE from 17 hours ago
0 FENGYUN 1C DEB
1 31183U 99025BJM 26121.46602208  .00006458  00000-0  15883-2 0  9991
2 31183  99.0451 120.6559 0047050  50.4749 101.8533 14.51972625995094
Epoch: 2026-05-01T11:11Z
TLE epoch observation values (Epoch: 2026-05-01T11:11:04.307Z)
Latitude
26.81882°
Longitude
-81.9186°
Altitude
729.514 km
Speed
7.489 km/s
True Right ascension
20h 20m 59s
True Declination
26° 40' 48"
Sunlit
Object was in daylight at epoch
Visualization orbit readout
Latitude
Unknown
Longitude
Unknown
Altitude
Unknown
Speed
Unknown
Apparent Right ascension
Unknown
Apparent Declination
Unknown
Sunlit
N/A
Visualization observer readout
Local Sidereal Time
11:20:55
Azimuth
Unknown
Elevation
Unknown
Doppler factor
Unknown
Orbital elements
Apogee altitude
749.725 km
Perigee altitude
682.966 km
Semi-major axis
7,094.483 km
Eccentricity
0.00471
Inclination
99.0451°
RAAN
120.6559°
Arg. of periapsis
50.4749°
True anomaly
102.38031°
Mean anomaly
101.8533°
Eccentric anomaly
102.11687°
Mean motion
3.63214 °/min
Orbital period
99.12 mins
BSTAR
0.0015883
Loading maneuver chart data...
Computing Atmospheric mass density...
Loading historical data...
Loading historical data...
Loading historical data...
Loading historical data...
Loading historical data...
Loading historical data...
Loading historical data...

Documentation

Showing up to 5 results
|